Regional Weather Roundup
Issued by NWS

Home | Current Version | Previous Version | Graphics & Text | Print | Product List | Glossary On
Versions: 1 2 3 4 5 6 7 8 9 10 11 12 13 14 15 16 17 18 19 20 21 22 23 24 25 26 27 28 29 30 31 32 33 34 35 36 37 38 39 40 41 42 43 44 45 46 47 48 49 50
000
ASUS43 KFSD 010810
RWRSD

WEATHER ROUNDUP FOR SOUTH DAKOTA
NATIONAL WEATHER SERVICE SIOUX FALLS SD
200 AM CST SUN MAR 01 2015

NOTE: "FAIR" INDICATES FEW OR NO CLOUDS BELOW 12,000 FEET WITH NO
SIGNIFICANT WEATHER AND/OR OBSTRUCTIONS TO VISIBILITY.


SDZ001>005-009-010-012>017-010900-
NORTHWEST AND NORTH CENTRAL SOUTH DAKOTA

CITY           SKY/WX    TMP DP  RH WIND       PRES   REMARKS
BUFFALO          N/A      9   4  80 W10       30.08S WCI  -5
FAITH            N/A     15   8  73 W12       30.19R WCI   2
MOBRIDGE       PTCLDY     5   2  87 CALM      30.19S
$$

SDZ012>016-024>037-041>051-057-063-072>074-010900-
SOUTHWEST AND SOUTH CENTRAL SOUTH DAKOTA

CITY           SKY/WX    TMP DP  RH WIND       PRES   REMARKS
RAPID CTY ARPT CLOUDY    14   9  80 CALM      30.19S
PIERRE         PTCLDY    11   3  70 SW8       30.25S WCI  -1
CUSTER         MOCLDY     9   4  80 SW5       30.03R WCI   1
ELLSWORTH AFB  CLOUDY    12   8  82 W2        30.17S
PHILIP         PTCLDY    11   4  73 CALM      30.24F
PINE RIDGE     LGT SNOW  18   9  68 NE5       30.19R WCI  11
WINNER         CLOUDY    16   2  54 W5        30.25R WCI   9
$$

SDZ004>011-016>023-039-040-010900-
NORTHEAST SOUTH DAKOTA

CITY           SKY/WX    TMP DP  RH WIND       PRES   REMARKS
ABERDEEN       PTCLDY     5   0  79 W6        30.27R WCI  -6
WATERTOWN      CLEAR      8   1  73 W3        30.21S
SISSETON         N/A      8   2  76 CALM      30.23R
$$

SDZ017-020-022-023-036>040-048>070-010900-
SOUTHEAST SOUTH DAKOTA

CITY           SKY/WX    TMP DP  RH WIND       PRES   REMARKS
SIOUX FALLS    CLEAR     11   7  84 W3        30.24S
HURON          CLEAR      2  -1  88 W5        30.27S WCI  -8
CHAMBERLAIN    PTCLDY    13   9  83 CALM      30.26R
MITCHELL       CLEAR     10   6  84 NW8       30.29R WCI  -2
YANKTON        PTCLDY    18  10  73 W8        30.30R WCI   7
$$

ABBREVIATIONS USED IN REMARKS
   TC - TEMPERATURE IN CELSIUS
  WCI - WIND CHILL INDEX
   HX - HEAT INDEX
  VSB - VISIBILITY



USA.gov is the U.S. government's official web portal to all federal, state and local government web resources and services.